GFSWCAN_sfc_temp_333.txt.gz
Temp
54 55 55 56 56 55 55 55 56 56 56 56 56 56 55 55 55 53 53 56 47 41 44 50 51 47 46 44 41 54 52 54 45 41 46 49 51 56 56 61 55 49 46 46 50 47 45 74 66 62 74 76 76 75
54 55 56 56 55 55 55 55 55 55 55 56 56 55 55 55 55 54 48 57 56 44 43 56 55 58 55 51 45 45 49 54 55 47 48 55 51 58 56 52 65 53 59 55 57 57 70 73 72 74 78 76 76 75
54 54 54 54 54 54 55 55 55 55 55 55 54 55 55 55 54 53 51 53 50 43 42 43 45 57 61 59 59 40 45 50 56 63 57 49 47 59 52 56 60 66 69 60 61 68 70 73 75 77 78 75 76 78
53 53 54 54 54 54 55 55 55 55 55 55 54 55 55 54 54 54 50 53 49 45 35 40 57 53 62 63 60 55 50 50 49 48 45 46 43 59 56 60 60 66 68 62 63 68 71 74 75 76 76 75 75 76
53 53 54 54 54 54 54 54 54 55 55 55 54 54 54 53 54 53 52 53 53 44 34 37 49 58 62 60 57 58 55 49 45 40 41 40 48 53 58 58 54 66 64 62 59 69 70 72 77 75 73 74 76 74
53 53 53 54 54 54 54 54 54 54 54 54 53 53 53 53 53 49 42 53 55 52 39 33 50 51 55 58 57 56 53 54 49 44 42 44 50 50 43 45 58 64 69 72 68 74 74 76 78 81 78 77 77 76
53 53 54 54 54 54 54 53 53 54 54 54 53 53 53 53 50 44 42 52 54 52 39 33 35 52 57 56 54 53 55 49 49 44 42 43 44 47 42 41 57 64 66 68 72 72 69 73 72 78 78 79 77 79
53 53 53 53 53 53 53 54 53 53 53 54 53 52 52 52 51 46 52 53 52 44 42 32 34 45 57 48 45 53 47 47 45 44 43 42 45 44 36 46 53 58 61 63 65 68 70 75 75 75 77 76 75 75
52 53 53 53 53 53 53 54 53 53 53 53 52 51 51 48 44 49 54 52 52 44 32 32 33 35 54 48 49 48 48 40 46 39 40 41 39 36 42 48 53 58 58 59 62 65 67 68 70 72 73 74 73 73
52 52 53 53 53 53 53 53 53 53 53 51 50 44 34 41 52 52 46 38 38 35 36 32 40 34 42 43 39 41 39 37 33 39 45 37 36 47 53 57 59 60 61 63 59 59 62 64 68 69 70 72 73 74
52 52 52 52 52 52 53 53 53 51 50 47 37 34 44 49 46 41 33 32 33 31 33 39 42 40 45 38 34 39 34 34 32 36 36 33 35 47 55 56 60 62 63 64 65 64 66 68 67 68 70 72 72 72
52 52 52 52 52 52 52 52 51 49 47 46 44 46 45 39 34 31 32 32 32 33 42 40 43 45 45 47 40 36 33 33 30 42 34 32 44 54 57 58 60 62 62 63 65 65 66 67 68 69 70 71 71 72
52 51 51 51 51 52 51 51 51 51 48 48 40 33 32 32 28 28 28 31 31 40 44 45 38 42 39 40 36 34 31 32 42 32 33 41 53 58 59 61 62 64 65 64 64 65 66 66 69 69 68 70 72 71
51 51 51 51 51 51 51 50 50 49 45 34 32 29 30 30 31 34 37 41 47 48 46 45 39 37 39 33 33 31 33 33 31 30 36 49 54 59 63 66 66 64 65 65 65 64 64 64 65 67 69 70 69 68
51 51 50 50 51 51 51 50 50 47 39 32 32 27 30 38 41 41 42 42 45 46 47 42 39 38 34 34 33 33 31 30 32 37 49 57 57 54 56 57 58 59 60 61 63 64 63 64 64 64 66 68 69 64
51 50 50 52 51 51 50 50 47 40 34 33 32 31 35 34 36 39 37 35 43 44 46 42 34 32 32 33 31 31 32 33 42 50 50 48 49 50 51 51 51 52 51 52 55 58 62 63 62 63 64 62 61 59
50 48 51 51 51 50 49 41 36 34 33 32 32 36 36 36 36 37 38 37 41 38 33 33 32 32 33 32 32 39 37 43 43 45 47 44 43 44 45 47 47 48 49 51 54 57 59 57 55 53 49 50 51 50
48 51 50 50 47 43 35 35 34 33 31 32 32 35 35 36 35 35 36 37 35 32 33 33 35 32 32 32 35 42 43 42 41 41 42 43 44 44 45 45 47 48 48 49 50 51 51 51 48 47 46 46 45 45
49 50 48 48 46 37 33 32 33 31 33 34 35 35 34 35 35 35 34 37 37 36 34 33 32 32 33 35 35 35 37 37 35 34 35 37 41 43 43 44 44 45 45 46 47 47 46 47 46 46 46 45 42 42
48 48 48 48 44 34 32 32 32 32 31 33 34 34 33 33 32 33 33 34 34 33 32 31 30 32 33 34 35 35 35 35 35 33 33 33 34 35 35 36 37 39 39 40 40 40 39 37 39 40 40 40 38 36
40 41 45 38 33 33 32 32 32 33 33 32 33 34 33 35 33 33 33 37 33 29 30 30 31 34 36 37 39 40 38 37 35 35 34 32 33 34 34 35 35 34 33 33 32 32 33 32 33 35 35 35 35 36
35 38 32 35 32 32 32 32 32 33 33 33 34 35 33 32 32 32 36 32 29 29 30 30 31 33 33 33 34 35 36 36 35 35 35 35 32 32 32 32 32 31 31 31 32 31 31 32 32 33 33 33 35 35
39 36 32 32 29 30 29 31 30 30 29 29 34 31 30 31 33 39 30 31 30 32 31 32 33 33 33 34 34 33 34 35 33 33 33 33 33 32 32 31 33 32 30 31 33 33 33 36 37 37 37 37 36 35
36 26 26 26 30 26 31 29 30 28 29 28 28 27 29 30 35 32 27 28 29 31 30 31 33 33 33 32 31 32 33 34 33 32 33 33 31 31 33 33 33 34 34 35 35 35 35 36 37 37 36 35 35 35
28 21 24 21 26 28 26 27 28 27 24 25 27 27 29 33 28 26 25 26 27 27 28 31 31 32 31 31 31 31 33 36 33 31 33 36 34 33 32 32 32 33 37 34 33 33 33 35 35 35 34 34 33 33
18 19 22 24 23 25 27 24 25 26 28 26 27 31 33 29 22 21 24 24 25 26 26 27 29 28 27 29 28 28 30 33 33 29 29 35 36 34 32 31 29 29 35 36 35 33 33 33 33 33 32 32 33 33
20 19 23 26 27 29 28 30 31 29 25 25 28 27 27 19 19 23 29 28 27 27 28 28 28 27 27 27 29 30 31 32 30 29 31 31 32 34 33 29 27 30 34 34 34 33 32 31 31 31 31 32 32 31
20 23 19 22 25 29 25 26 25 24 26 28 28 18 18 19 20 25 27 29 29 29 27 27 27 27 27 29 31 31 31 32 33 33 33 31 31 31 31 31 32 32 33 33 33 33 33 32 31 31 31 30 31 32
21 24 24 15 21 23 22 23 24 25 25 28 23 20 19 23 25 27 28 30 31 29 27 26 26 27 26 28 30 30 32 34 32 28 26 26 26 26 30 31 31 31 31 32 32 32 32 32 31 31 30 30 31 31
21 24 22 19 17 19 22 25 23 26 27 27 26 24 24 24 26 29 29 30 28 26 26 26 26 27 26 27 26 26 28 29 29 29 26 24 24 28 30 30 30 30 31 31 31 31 32 32 32 31 30 29 29 28
24 27 23 23 21 23 25 28 29 29 27 26 28 24 23 24 26 27 27 28 29 29 28 26 27 29 28 28 27 26 24 27 28 29 29 29 30 30 30 29 30 30 30 30 29 29 28 27 27 27 26 25 25 25
25 23 23 19 21 26 28 27 26 25 25 25 24 26 25 25 20 24 26 28 27 26 27 26 25 24 27 27 27 27 27 27 29 29 29 30 30 30 30 30 30 30 29 28 28 27 26 25 25 24 24 24 23 24
23 25 25 23 22 22 24 24 23 21 23 22 22 23 23 23 19 23 27 27 26 25 24 26 27 27 26 26 26 26 26 27 28 30 30 31 32 32 30 29 29 29 27 26 26 26 25 24 23 23 23 23 23 23

GFSWCAN_sfc_temp_339.txt.gz
Temp
55 55 55 55 55 55 55 55 55 55 56 56 56 56 55 55 55 50 45 48 43 38 42 45 45 41 41 41 35 42 40 42 39 37 38 38 37 42 42 46 45 39 34 38 41 34 36 58 55 55 56 56 59 58
55 55 55 55 55 54 55 55 55 55 56 55 55 55 55 55 55 53 42 48 48 41 42 49 49 51 50 48 42 41 41 40 41 35 35 36 37 42 41 37 51 43 49 40 44 48 58 57 54 59 59 59 64 61
54 54 55 55 54 55 55 55 55 55 55 54 54 54 54 54 54 52 44 43 43 40 40 41 42 49 53 52 54 40 42 44 45 45 39 35 31 36 33 37 43 48 55 47 46 54 54 61 67 67 62 62 65 61
54 54 54 54 55 55 55 54 55 55 55 54 54 54 54 54 54 53 45 46 43 39 34 37 49 44 53 53 52 51 47 48 47 44 38 33 33 40 35 39 36 38 38 47 51 57 57 58 60 64 65 62 61 61
53 53 54 54 54 54 54 53 54 54 54 54 54 55 54 54 54 51 47 46 47 40 32 36 43 46 48 49 47 50 48 45 41 38 37 34 38 37 39 40 37 45 41 37 38 51 55 55 60 62 60 61 62 62
53 53 53 54 54 54 53 53 54 54 54 54 54 54 54 53 53 45 38 44 48 46 38 31 41 41 48 48 46 46 45 44 43 39 38 40 45 39 33 32 42 47 51 52 48 54 56 59 61 59 60 61 62 60
53 53 53 53 54 53 53 53 54 54 54 54 53 53 53 53 47 41 38 42 49 48 37 31 32 37 44 45 45 45 46 42 41 38 38 39 41 40 35 31 42 47 50 50 54 54 51 54 56 61 58 59 60 60
52 53 53 53 53 53 53 53 54 54 54 54 53 52 52 52 49 43 48 50 49 43 39 31 25 32 41 35 34 41 36 37 39 40 38 38 40 39 32 41 43 47 49 49 50 52 53 55 58 59 61 60 58 59
52 52 53 53 53 53 53 54 54 54 54 53 52 51 45 42 40 42 51 50 47 41 32 31 29 27 41 38 37 36 36 33 37 35 36 39 36 32 39 42 44 46 45 47 51 52 52 52 54 56 57 58 57 58
51 52 52 53 53 53 53 53 53 53 52 51 44 38 33 35 50 49 43 36 36 34 34 30 31 28 36 35 31 31 34 32 28 30 38 33 33 43 46 48 49 50 50 51 48 47 50 50 52 53 54 57 57 57
51 51 52 52 52 52 52 53 53 52 50 42 33 33 36 47 40 36 32 31 31 30 32 34 32 31 36 30 28 34 27 30 19 29 32 28 32 41 47 48 50 52 52 52 53 54 55 55 55 55 56 57 58 59
51 51 52 52 52 52 52 52 51 45 40 41 40 43 39 35 33 30 28 26 29 28 26 31 32 35 33 37 31 29 27 22 19 31 22 18 39 47 49 50 51 51 52 52 54 54 55 56 57 56 56 57 58 59
51 51 52 52 52 52 52 52 51 49 48 43 36 33 32 31 26 20 13 25 23 29 35 33 32 33 32 34 31 29 28 27 30 17 22 32 45 49 51 53 53 53 53 52 52 53 54 55 57 56 56 59 60 59
51 51 51 51 51 51 51 51 51 48 42 32 30 25 24 21 19 20 21 24 32 34 35 35 32 34 34 33 32 29 28 29 26 24 27 40 44 41 43 45 45 46 49 51 52 54 54 54 54 56 57 59 59 58
51 51 51 50 51 51 51 51 50 43 37 31 26 17 20 25 22 28 32 30 35 36 36 35 33 34 32 31 32 29 27 26 27 27 33 36 38 39 40 40 39 41 42 43 45 45 45 45 45 49 54 56 58 58
51 50 47 50 50 50 50 49 44 39 32 31 29 20 23 27 25 24 25 30 36 36 37 36 29 29 25 30 29 28 26 26 29 33 35 36 37 38 39 40 41 42 43 43 44 45 46 46 45 45 47 46 49 53
50 43 50 50 50 50 49 40 35 32 32 30 29 31 22 21 25 26 31 33 37 34 26 26 21 22 24 26 23 28 27 31 32 33 33 33 33 33 34 35 37 37 37 39 40 41 41 42 42 41 37 37 39 40
41 45 50 51 48 44 36 35 33 32 30 28 29 29 25 25 25 26 33 35 33 29 26 25 31 28 26 19 28 36 40 36 35 34 34 34 34 35 35 33 34 34 34 34 35 36 39 39 37 35 35 35 36 35
45 46 50 50 45 37 33 33 33 29 30 33 31 25 27 27 31 34 34 35 36 35 34 32 29 28 29 33 32 33 34 34 33 33 33 34 34 33 33 34 34 33 33 33 33 33 34 34 36 36 35 35 34 34
49 50 50 48 44 33 31 31 32 30 28 29 33 31 31 32 33 33 34 33 32 31 29 29 28 28 30 32 33 33 33 33 34 32 31 32 33 33 32 32 32 32 32 32 33 33 32 31 32 33 33 33 32 31
44 45 45 39 33 33 32 30 29 31 32 29 32 32 31 32 32 32 31 33 30 26 25 28 28 30 33 34 34 35 34 35 33 32 31 29 31 32 31 31 32 32 31 30 30 30 31 30 31 32 32 31 32 32
35 41 33 35 32 31 27 30 28 32 31 32 31 32 31 30 30 30 31 28 26 27 28 27 29 31 33 32 33 34 34 34 33 32 32 31 28 28 28 29 30 28 28 29 30 29 30 31 30 30 30 30 32 32
39 36 33 33 30 27 26 29 28 29 27 28 30 29 28 29 30 33 26 27 27 29 28 29 32 32 31 33 33 32 33 32 30 29 29 28 28 28 29 30 30 29 28 28 31 30 30 33 32 30 30 30 29 29
36 29 28 28 25 24 25 24 26 27 27 26 26 24 25 27 30 26 24 24 26 27 26 27 30 31 30 30 28 29 31 31 30 30 30 29 27 27 28 28 30 31 32 32 32 31 31 31 32 30 30 29 29 28
28 22 24 19 17 19 19 19 20 19 18 22 20 22 18 23 19 20 22 22 24 24 24 27 26 26 26 26 27 28 29 29 28 25 28 31 30 29 28 28 28 28 30 29 28 29 29 30 30 31 31 30 29 29
15 13 16 12 17 18 18 16 17 20 23 19 24 23 21 15 10 14 20 22 24 23 23 24 25 24 23 24 24 25 26 29 29 25 25 27 28 26 24 24 24 25 29 29 28 28 28 28 28 28 27 28 31 28
10 18 15 14 23 21 22 26 26 21 22 22 23 13 10 4 11 20 23 24 23 24 25 26 26 25 24 24 25 26 28 29 27 25 27 27 27 26 25 24 24 25 29 29 28 28 27 27 27 27 27 27 27 27
15 14 12 17 19 23 23 22 22 21 20 21 17 7 5 12 17 21 23 26 24 24 26 26 26 25 25 25 26 29 29 29 29 28 28 27 27 26 25 25 28 32 28 29 29 28 27 26 26 26 26 26 25 27
10 13 16 9 14 20 19 20 19 21 20 19 15 12 15 20 22 23 25 25 25 23 22 23 24 26 25 25 26 26 27 29 27 23 21 20 21 22 25 24 24 24 23 26 32 31 29 28 26 25 25 25 25 25
9 11 9 7 15 16 17 19 19 19 17 17 19 20 20 20 23 24 24 23 22 19 21 23 24 25 23 23 22 23 26 27 26 24 21 19 20 22 23 23 23 22 23 23 23 24 30 26 26 24 24 23 23 22
13 16 11 12 12 18 18 18 20 22 17 16 19 17 17 18 22 23 23 23 21 21 21 21 22 24 23 23 23 23 21 25 24 25 24 23 23 23 22 22 22 22 22 23 22 22 23 22 22 21 20 20 20 21
17 16 16 10 14 20 24 21 18 18 19 16 13 14 16 15 11 18 22 22 19 19 24 22 22 22 25 24 24 25 27 23 24 24 25 23 23 23 22 21 21 22 22 22 22 22 21 21 20 20 19 18 18 18
15 18 18 16 15 20 17 15 12 10 12 10 11 13 14 16 12 18 23 24 22 21 22 23 23 23 23 24 23 24 24 22 28 32 32 32 31 28 21 18 21 22 20 19 20 20 19 18 18 19 19 18 18 18

GFSWCAN_sfc_temp_345.txt.gz
Temp
56 56 56 56 56 56 56 56 56 56 55 55 55 55 55 55 55 47 45 45 42 38 40 43 44 37 36 36 32 36 34 34 32 27 27 28 28 34 32 38 38 37 35 34 34 35 32 45 49 46 44 52 51 49
55 55 55 56 56 56 56 56 55 55 55 55 55 55 55 55 55 52 43 45 46 40 41 44 46 47 46 46 39 36 36 35 35 29 30 33 28 32 31 26 39 31 36 31 33 36 43 44 42 49 48 47 49 49
54 55 55 55 55 55 56 56 55 55 55 54 54 54 55 55 54 51 42 42 44 40 39 39 39 45 50 49 51 36 37 40 37 39 35 34 29 31 26 30 30 39 45 33 33 40 41 45 49 52 53 51 53 53
54 54 54 54 55 55 55 55 55 55 55 55 55 55 55 54 54 53 42 43 43 40 33 35 44 41 47 49 48 47 45 43 40 38 36 33 30 36 32 35 34 36 40 39 36 39 43 47 50 52 53 53 53 54
53 54 54 54 54 54 54 55 55 55 55 55 54 54 54 53 53 49 45 43 47 40 32 32 37 41 44 45 44 46 44 41 39 35 34 32 37 35 36 36 33 40 37 35 34 45 45 46 50 53 52 51 53 52
53 53 54 54 54 54 54 54 54 54 55 54 54 53 53 53 52 43 36 41 47 46 36 30 36 36 41 43 42 41 42 41 40 36 35 38 42 37 31 30 40 43 45 46 42 47 48 50 51 53 52 53 54 54
53 53 53 53 54 54 53 53 53 54 54 54 53 52 52 52 43 39 38 41 47 47 36 31 30 34 37 38 37 38 39 40 39 37 35 37 38 38 32 29 39 43 46 46 48 48 44 48 46 52 53 53 55 55
53 53 53 53 53 53 53 53 53 53 54 53 53 52 51 52 48 42 43 48 48 42 39 30 25 30 36 31 30 36 32 35 38 37 37 36 38 36 29 37 41 43 45 45 46 48 48 50 51 51 53 53 51 51
52 52 53 53 53 53 53 53 53 53 54 52 52 51 43 40 37 40 50 50 45 38 31 28 27 25 36 35 36 34 36 31 37 32 32 35 32 29 35 39 41 44 43 44 47 47 48 47 47 49 50 50 49 49
51 52 52 52 52 53 53 53 53 53 52 51 44 37 32 35 47 47 41 36 36 34 34 30 32 27 32 30 26 30 34 30 27 31 32 32 32 40 43 44 46 46 47 48 43 43 45 45 47 48 48 50 51 51
51 51 51 51 51 52 52 53 53 52 49 41 33 31 35 46 38 33 32 30 32 29 31 33 35 31 33 27 25 30 25 23 24 25 27 22 25 38 45 45 47 47 48 48 48 48 49 48 47 47 48 50 52 52
51 51 51 51 51 51 52 52 51 44 41 40 39 40 39 35 32 29 27 25 28 25 25 28 29 34 31 32 28 26 23 24 21 28 27 22 33 42 44 42 41 40 41 42 44 44 47 49 50 48 48 50 50 52
52 51 52 52 51 51 51 51 51 48 46 41 35 33 31 31 25 22 13 17 23 26 30 29 27 30 29 30 29 27 25 23 29 24 23 28 38 39 40 40 41 43 42 42 42 44 45 45 46 45 45 47 50 51
51 52 51 51 51 51 51 51 50 47 40 32 30 25 25 17 23 18 21 24 30 31 30 31 27 30 31 30 26 18 29 27 24 22 25 37 35 38 39 40 38 37 38 38 39 41 41 41 42 44 45 46 46 46
51 50 50 50 50 50 51 50 50 43 36 31 29 17 21 24 21 25 27 27 32 34 33 29 28 28 27 26 23 25 23 24 25 27 32 35 36 36 36 36 35 35 35 35 36 36 35 36 36 38 42 42 43 44
51 49 45 50 50 50 50 49 44 38 33 32 30 23 19 20 22 21 25 25 33 33 31 28 23 25 26 28 24 24 16 22 27 30 35 35 33 33 33 33 33 34 34 34 35 35 35 35 35 36 36 35 35 36
49 40 49 50 50 50 48 38 36 33 32 30 26 25 23 22 26 27 31 30 35 29 20 21 15 19 16 21 22 23 24 29 32 35 35 33 31 31 32 32 32 32 32 32 33 33 33 34 35 34 32 34 36 37
40 43 50 50 46 43 35 34 33 32 29 30 28 23 21 24 24 26 31 33 31 26 24 21 21 15 16 14 21 28 30 32 34 35 33 32 32 32 32 30 31 32 31 31 32 31 32 31 31 31 32 32 33 33
42 43 50 48 43 36 33 33 33 28 30 21 22 21 22 24 27 30 31 33 35 31 28 31 25 23 25 26 28 30 31 32 31 33 32 31 31 31 30 30 31 31 30 29 30 29 30 30 30 31 31 31 29 31
49 49 49 47 44 34 32 32 33 30 26 29 23 23 25 28 30 32 31 31 32 32 30 29 28 24 23 26 29 30 32 33 32 31 29 30 30 30 29 29 29 29 29 29 29 33 29 29 29 30 31 30 28 28
46 43 47 39 33 33 31 30 30 31 27 29 27 31 31 32 31 31 30 33 31 30 27 25 25 29 31 31 32 34 33 34 32 31 29 27 29 28 27 28 29 29 27 26 26 26 28 26 27 28 28 29 28 28
36 44 34 36 32 31 30 31 25 27 31 31 31 31 29 29 30 30 31 27 26 26 26 26 27 27 28 31 32 33 32 31 30 30 29 29 25 25 25 26 27 26 26 25 26 26 26 28 29 29 29 28 30 30
41 38 33 32 27 27 27 31 28 29 26 27 29 28 28 29 28 31 25 26 26 27 26 26 27 29 30 31 31 30 31 29 27 27 26 26 27 26 25 24 24 23 24 24 26 26 27 32 31 29 30 30 29 28
38 31 30 27 22 22 26 24 26 23 26 24 24 24 26 27 29 25 22 23 22 22 22 22 27 29 28 27 26 26 28 29 27 27 28 26 24 23 24 24 25 26 25 25 26 26 26 26 30 28 28 28 28 27
30 25 22 18 19 19 19 20 22 24 21 20 23 23 24 25 19 18 19 20 21 21 19 22 22 23 21 22 25 25 26 27 26 22 23 25 24 24 25 25 26 25 27 25 25 25 25 26 25 25 27 26 25 25
18 21 18 17 16 20 19 18 20 22 22 19 21 23 22 18 12 12 18 18 18 17 20 21 22 20 20 21 22 23 24 27 27 23 22 23 22 21 22 22 22 23 27 26 25 24 24 25 24 24 23 23 27 24
18 16 17 20 21 22 21 24 25 22 17 15 19 16 13 7 8 17 20 19 18 17 19 20 20 19 19 21 24 25 25 27 26 24 25 24 24 23 22 23 22 23 27 27 25 24 23 23 23 23 23 23 23 23
14 15 18 20 21 23 20 16 14 14 17 21 18 9 9 12 14 18 19 20 20 21 21 22 24 23 23 23 24 24 25 26 28 28 28 27 26 26 24 23 25 29 26 27 26 25 24 22 22 22 22 21 21 23
13 17 19 14 12 13 15 16 15 18 19 19 14 11 12 18 20 20 23 21 22 20 19 19 21 22 24 24 24 25 25 25 23 22 21 21 21 21 24 24 24 22 21 23 31 29 26 24 22 22 22 21 22 22
14 12 11 7 7 8 13 17 16 16 15 15 16 17 18 17 19 25 21 19 19 18 18 20 20 21 21 21 21 22 23 25 25 23 22 20 20 22 22 22 22 20 21 20 20 22 27 23 23 21 20 20 20 18
11 13 8 9 8 12 15 17 17 16 12 12 15 14 15 14 18 20 21 18 19 21 21 20 22 23 23 22 22 20 20 23 24 24 24 23 22 21 20 20 20 20 21 20 20 19 19 19 18 17 17 16 16 17
12 11 12 6 11 15 20 18 15 15 15 13 10 11 14 13 10 15 18 19 18 17 23 22 22 21 24 24 23 22 27 21 22 21 21 19 21 21 21 20 20 21 20 19 19 18 18 17 17 16 15 15 14 14
9 14 15 12 10 12 15 14 10 8 11 8 9 10 12 14 11 17 20 21 21 20 21 22 23 23 23 24 23 23 24 21 25 29 29 29 28 25 18 15 17 18 16 16 17 17 16 15 15 16 15 15 15 14

GFSWCAN_sfc_temp_351.txt.gz
Temp
56 56 56 56 56 56 56 56 56 56 56 56 55 55 55 55 55 45 42 43 40 37 36 40 40 35 33 33 29 33 33 33 30 28 27 28 26 30 28 32 32 31 29 27 29 27 27 41 42 37 42 46 47 48
55 56 55 55 55 55 55 56 56 56 56 56 55 55 55 54 54 48 38 43 45 40 39 41 43 46 43 43 36 37 37 36 35 29 28 30 26 27 26 23 35 28 34 30 32 34 45 46 45 49 48 46 48 48
55 55 55 55 55 55 55 55 56 56 55 55 55 55 54 55 54 50 39 41 44 39 37 35 37 44 45 46 46 35 35 39 35 37 33 31 23 28 22 24 28 33 39 32 33 39 42 46 49 49 50 50 51 50
54 53 54 54 54 55 55 55 55 55 55 55 55 55 54 54 54 52 41 41 40 40 32 32 42 37 44 45 44 45 43 40 37 38 34 31 26 32 27 31 30 35 35 33 34 39 41 44 46 48 49 50 51 52
54 54 54 54 54 54 55 55 55 55 55 55 55 55 54 54 53 47 41 42 46 39 27 31 36 40 42 41 41 43 41 38 38 34 32 30 31 33 34 33 30 37 34 31 30 41 41 42 47 50 47 47 49 48
53 53 54 54 54 54 54 54 54 54 54 54 54 53 53 53 52 40 34 38 43 44 36 30 36 34 38 39 38 38 39 39 38 35 34 36 40 35 28 26 38 41 43 43 38 44 44 46 48 49 47 47 49 49
53 53 53 53 54 54 54 53 53 53 54 54 53 53 53 52 42 39 34 40 46 46 36 30 29 33 33 34 34 34 36 37 37 35 33 35 36 34 30 26 37 41 43 44 46 45 41 45 43 49 49 50 51 50
53 53 53 53 53 54 54 53 53 53 53 53 53 52 52 51 47 40 43 48 47 41 38 30 27 28 33 29 28 33 35 36 36 34 33 32 34 34 27 35 40 42 43 43 44 46 44 46 47 47 49 48 46 46
52 52 53 53 53 53 53 54 53 53 53 53 52 51 42 39 37 38 49 50 44 39 31 26 18 21 33 33 33 31 33 31 37 32 33 34 29 28 32 35 38 40 39 41 44 44 44 44 44 45 46 46 44 45
52 52 52 53 53 53 53 53 53 53 52 51 45 38 32 35 47 46 41 36 36 34 34 30 29 25 31 29 30 30 33 30 25 29 33 30 30 38 40 42 43 43 42 41 38 37 40 39 40 41 42 44 44 45
51 52 52 52 52 52 52 53 53 52 50 41 35 33 34 45 39 35 31 30 26 28 32 33 31 28 32 27 26 30 22 21 21 22 28 24 23 32 38 39 41 41 42 42 41 40 40 39 38 38 38 40 41 41
51 51 51 51 51 52 52 52 51 45 41 41 39 41 40 35 32 29 25 24 27 20 25 30 33 34 30 30 27 26 25 25 19 27 26 21 29 36 38 38 37 38 37 36 37 37 38 38 38 37 37 38 38 40
51 51 51 51 51 51 52 51 51 50 46 41 35 32 30 30 25 21 12 22 23 30 28 26 26 28 28 30 30 26 20 16 26 23 22 26 34 36 35 35 36 37 36 35 33 34 35 35 36 36 35 37 38 38
51 51 51 51 51 51 51 51 50 47 40 32 29 25 23 19 19 20 22 25 29 27 26 28 25 30 32 28 28 24 23 25 22 21 23 29 30 31 36 36 34 32 33 32 32 32 33 32 32 34 34 34 34 34
51 51 51 50 51 51 51 51 50 42 34 30 28 21 22 24 20 23 26 27 29 28 29 27 30 30 28 27 27 27 22 22 25 23 26 29 32 36 34 32 31 31 31 31 31 30 31 31 30 30 32 33 33 33
51 50 45 50 50 51 50 48 42 39 32 31 27 21 18 21 20 19 23 26 32 29 29 28 16 20 22 21 20 21 21 19 23 26 29 31 35 34 30 30 31 31 30 30 30 31 31 29 29 30 31 31 30 30
50 39 49 50 50 50 46 39 35 32 32 29 27 30 22 20 23 23 27 29 32 28 19 15 12 17 20 21 21 24 22 26 28 28 30 34 34 30 28 31 30 30 29 29 29 30 30 31 31 30 27 28 29 29
39 42 47 47 46 42 36 35 33 32 28 29 27 27 28 23 23 24 29 30 29 22 22 19 25 18 13 12 17 23 26 27 29 29 30 34 32 27 30 29 30 29 29 29 29 30 29 28 27 27 28 28 29 29
42 41 48 47 43 37 33 33 33 26 24 24 28 20 21 23 27 30 29 30 31 28 27 19 18 17 22 26 28 26 26 25 23 26 33 33 29 30 29 29 30 29 27 27 27 28 28 28 28 28 29 28 26 27
48 48 48 48 43 31 31 31 33 29 20 23 21 24 26 22 20 22 24 24 29 27 28 26 24 28 23 23 23 23 24 27 29 30 31 30 30 29 28 28 28 28 27 26 26 30 26 26 26 26 28 28 26 25
44 44 47 38 33 27 23 31 30 30 29 25 21 22 21 27 26 26 24 30 29 28 25 27 24 24 26 28 31 31 31 32 32 32 31 27 28 28 27 26 24 22 19 16 14 17 21 19 19 22 21 21 24 25
37 44 34 36 33 32 29 23 29 31 28 26 29 30 28 27 28 26 27 29 29 31 27 23 26 28 28 28 30 32 32 30 30 30 30 29 25 24 22 20 21 17 15 14 14 14 15 18 19 19 18 19 22 22
42 39 33 33 26 27 23 31 28 28 25 23 28 27 27 28 30 32 28 27 25 25 27 27 27 28 27 28 29 29 30 28 26 25 25 24 24 23 21 20 22 21 22 21 20 21 21 27 26 25 24 24 24 24
41 33 31 30 28 18 23 22 23 24 26 23 22 21 22 25 28 26 24 25 25 25 24 21 23 26 25 23 21 23 25 26 24 24 24 24 22 22 23 23 25 24 24 24 25 24 24 24 26 23 25 23 23 23
29 27 27 15 17 22 17 18 22 22 17 18 20 20 22 27 24 23 22 22 18 16 15 15 17 24 19 19 22 22 25 26 24 22 23 25 24 24 24 25 25 25 27 24 24 24 23 24 23 22 22 23 22 21
18 17 17 19 21 19 19 18 20 19 20 19 24 24 25 23 20 19 19 17 17 17 17 16 17 17 17 18 20 21 22 25 26 23 22 23 24 24 24 23 23 24 27 26 25 24 23 23 22 21 20 19 23 21
20 15 14 15 20 20 21 23 24 20 18 21 21 19 18 13 13 17 18 18 17 16 16 16 15 16 17 16 19 20 23 25 24 24 24 23 23 23 23 23 22 25 28 27 26 24 23 22 21 21 21 20 20 19
11 12 18 20 21 22 20 20 21 21 22 22 19 12 13 14 15 18 19 22 19 19 19 19 16 16 16 15 18 22 22 23 24 24 23 22 22 23 22 23 25 28 27 28 27 26 24 22 21 20 20 19 18 20
11 14 18 12 13 14 17 21 20 20 19 19 17 14 14 18 18 19 24 24 21 21 19 19 19 20 21 22 22 21 21 20 20 18 18 18 18 19 22 23 23 23 23 25 29 28 26 24 22 20 20 19 19 19
10 12 11 9 11 14 15 19 17 17 16 17 17 16 16 15 14 23 23 19 19 16 16 17 18 17 18 18 18 19 19 19 19 18 18 19 19 20 19 20 20 18 19 20 20 21 26 21 21 18 18 17 17 16
12 15 11 11 9 14 16 16 16 17 13 13 15 14 14 12 15 19 19 17 18 19 19 19 20 20 19 18 18 19 18 21 19 20 19 19 18 18 18 18 18 18 18 18 18 17 18 17 16 15 14 14 15 15
14 14 15 9 11 16 19 17 15 14 13 13 9 10 14 12 10 14 17 17 18 19 22 21 19 19 21 21 19 19 27 18 18 18 19 17 19 18 18 16 16 18 18 17 17 16 16 15 15 14 13 13 13 13
11 14 14 12 11 12 16 14 10 9 10 7 7 9 10 13 11 15 20 20 19 18 18 21 21 21 21 22 22 21 23 17 21 28 28 27 26 22 14 12 14 16 14 15 15 15 14 13 13 14 14 14 13 13

GFSWCAN_sfc_temp_354.txt.gz
Temp
56 56 56 56 56 56 56 56 56 56 56 56 56 55 55 55 54 51 51 51 47 41 44 45 47 43 43 42 37 43 41 41 40 34 35 36 34 38 36 39 37 36 34 34 37 33 30 50 49 39 45 52 52 52
55 56 56 56 56 55 55 55 55 56 56 56 56 55 55 55 54 51 47 51 50 42 42 49 50 52 50 49 44 44 42 40 43 38 38 37 33 34 32 28 42 33 40 37 38 40 51 53 51 54 55 52 52 52
55 55 55 55 55 55 55 55 55 55 55 55 55 55 55 55 54 51 49 48 45 42 42 43 43 51 53 52 55 39 44 47 44 48 40 36 30 37 30 33 37 42 46 38 38 44 47 51 54 54 54 53 54 55
54 54 54 54 55 55 55 55 55 55 55 55 55 55 55 54 54 51 48 48 47 44 33 41 51 46 54 54 52 51 49 48 47 45 36 33 32 42 36 38 37 41 43 39 39 44 47 49 52 53 54 54 53 54
54 54 54 54 54 55 55 55 55 55 55 55 55 55 54 54 53 52 50 49 51 44 35 40 48 52 52 51 49 49 47 44 41 35 34 32 39 36 39 39 36 44 41 37 37 46 47 47 51 53 51 50 52 52
53 54 54 54 54 54 54 54 54 54 54 54 54 54 53 53 51 49 42 48 49 48 37 31 47 44 47 47 46 45 45 43 39 36 35 39 42 37 32 33 45 48 50 50 45 50 49 50 52 53 51 52 53 53
52 53 53 53 53 53 54 54 54 54 54 54 53 53 53 52 49 45 41 48 48 48 37 32 35 44 42 43 43 43 44 40 39 36 35 38 38 36 33 29 42 47 49 49 51 50 46 49 48 52 52 53 53 54
52 53 53 53 54 53 53 53 53 53 53 53 53 53 51 51 49 45 51 49 50 43 37 30 32 38 43 41 39 42 37 37 36 37 38 36 39 35 30 40 45 48 49 49 49 51 49 50 51 51 52 52 49 49
52 52 53 53 53 53 54 54 53 53 53 53 52 51 48 46 42 46 50 50 49 41 32 31 30 32 41 40 40 36 38 31 39 33 35 38 35 30 38 42 45 48 46 45 47 48 48 47 46 45 45 44 42 42
52 52 52 53 53 53 53 54 54 53 52 51 47 40 33 39 47 49 45 38 37 34 34 31 37 32 38 38 33 34 35 32 29 35 41 33 34 43 46 48 49 46 46 45 40 39 39 38 39 40 40 41 41 40
52 52 52 52 52 52 52 53 53 52 51 45 36 33 42 45 43 38 32 31 32 29 32 34 37 34 41 34 33 37 32 32 26 33 31 31 31 40 44 43 45 45 44 43 42 41 40 38 35 35 36 38 39 39
52 52 52 52 51 52 52 52 51 48 45 44 41 43 41 35 32 30 29 30 29 28 34 33 36 37 37 38 35 33 30 29 25 35 29 27 38 41 41 41 42 43 42 40 40 38 37 35 36 34 34 35 36 38
51 52 51 51 52 51 52 51 51 49 46 43 37 32 32 31 27 26 22 26 28 34 35 35 32 36 34 36 33 31 26 26 33 26 24 33 40 40 40 41 41 41 39 38 37 37 35 36 36 35 33 35 35 35
51 51 51 51 51 51 51 51 50 48 40 32 30 27 28 26 27 29 30 33 37 37 35 36 33 33 35 30 31 27 30 29 25 23 27 38 38 38 41 40 38 36 36 35 35 34 34 34 33 35 34 32 32 32
51 50 51 50 51 51 51 51 50 43 35 32 31 26 26 33 30 32 34 35 36 38 36 33 32 32 30 29 31 30 24 23 27 29 37 38 39 40 38 37 35 34 33 33 33 33 33 33 33 32 33 32 32 31
51 50 49 50 50 50 50 50 46 37 32 31 30 26 26 29 30 28 31 33 37 38 37 36 27 25 25 27 23 23 23 22 31 37 40 40 39 38 36 35 33 33 32 33 33 33 33 32 31 32 34 32 31 31
50 44 49 50 50 50 49 39 35 32 32 31 29 32 31 31 34 33 34 35 38 35 31 29 24 25 24 21 23 28 27 36 41 40 40 38 36 35 34 33 33 31 32 33 33 33 33 33 34 32 30 31 32 31
45 46 49 49 46 43 36 35 32 32 29 31 28 30 32 32 32 33 34 35 35 34 31 30 31 24 24 21 27 34 37 40 39 39 38 37 38 35 33 32 31 31 32 32 32 33 32 31 30 29 30 31 31 31
45 44 47 45 43 37 33 33 33 28 30 31 30 30 31 31 33 35 36 37 37 36 33 30 28 25 29 34 35 38 37 36 35 35 35 36 35 32 32 31 30 30 31 30 30 31 31 29 29 29 30 30 28 29
48 47 48 46 42 32 31 32 33 30 27 30 30 29 31 31 31 32 32 33 33 32 29 27 28 34 32 35 34 34 33 34 33 31 33 34 33 32 30 30 30 31 30 29 29 30 30 30 30 29 30 29 28 27
47 45 47 40 33 32 31 31 30 32 30 28 29 29 30 29 28 28 29 33 30 30 29 33 35 38 33 34 35 35 34 34 32 32 32 31 31 30 29 28 29 29 27 27 27 26 27 26 26 27 27 27 27 28
37 44 34 36 33 33 31 30 31 33 31 31 29 32 30 29 28 29 31 29 29 33 34 34 31 31 31 31 32 33 34 33 32 33 33 31 27 27 26 27 29 26 26 26 26 26 26 27 30 28 27 27 29 28
42 38 33 33 29 30 28 32 30 30 25 28 31 27 28 30 34 34 29 31 33 30 30 30 30 30 30 31 31 31 31 31 30 29 29 28 28 28 28 28 29 29 28 28 29 29 28 29 30 30 30 29 29 29
40 34 32 31 27 25 28 28 30 28 28 27 27 25 26 29 31 29 27 29 30 28 27 27 28 28 29 28 28 28 29 31 29 28 29 29 27 27 29 29 30 30 30 30 30 29 29 28 28 28 29 28 27 26
31 28 29 25 25 23 21 22 23 25 22 24 23 24 26 29 26 25 25 28 26 25 25 24 25 29 27 27 27 27 28 30 29 27 28 31 30 29 28 29 29 29 31 30 28 28 27 28 27 26 26 27 25 24
24 22 24 23 18 21 21 19 21 23 24 22 23 26 27 26 23 23 26 25 24 25 25 25 25 26 26 28 26 26 28 31 30 28 27 29 30 31 29 28 27 27 31 30 29 27 26 26 25 24 24 23 24 24
19 18 20 19 24 23 23 26 27 25 22 21 24 22 23 21 21 24 23 24 24 25 25 25 25 26 27 26 27 28 29 30 30 29 28 28 29 29 30 28 26 27 30 30 29 27 26 25 24 24 24 24 23 23
19 17 19 20 21 25 22 22 22 21 24 26 24 20 20 21 22 23 23 25 25 24 24 24 25 26 26 26 27 26 26 27 28 28 27 28 28 28 28 28 29 29 29 30 29 28 26 25 24 23 23 22 23 24
17 19 22 15 18 21 23 25 24 26 25 25 23 21 21 22 23 23 25 26 25 25 24 23 23 25 25 26 26 27 27 27 24 22 22 24 24 25 27 27 27 27 27 28 30 29 27 26 25 24 23 23 23 23
13 18 15 13 16 18 21 22 22 22 21 22 22 21 21 21 22 24 26 23 23 23 24 25 24 24 24 24 23 24 26 27 27 26 25 25 26 27 26 26 26 25 25 25 25 25 27 25 24 23 23 22 22 22
16 18 14 15 15 18 20 20 21 20 19 19 19 20 20 20 21 23 27 24 24 24 23 22 23 24 24 24 24 24 24 26 25 26 26 26 26 25 25 24 25 25 24 24 24 23 23 22 22 20 20 18 18 19
17 17 17 12 14 18 20 20 19 19 18 18 18 16 18 18 17 21 23 22 22 22 24 25 24 24 26 27 26 27 29 27 26 26 25 24 24 25 24 23 23 23 23 23 22 22 21 20 20 19 19 17 17 17
17 17 17 16 15 16 19 17 15 14 15 15 15 16 16 18 16 21 23 24 24 24 24 26 26 26 26 26 26 26 27 25 26 27 27 27 26 24 22 22 22 22 21 21 21 21 19 18 18 18 18 17 17 17